Timeline UpdatesTrip UpdatesNews PostsPvt Posts♥♥Travel TipsAdmin PostsConv PostsFollowed PostsChat RequestsBlog PostsPNR Posts

Disclaimer
Search
 
 
Fri Dec 19, 2014 12:46:58 ISTHomeTrainsΣChainsAtlasPNRForumGalleryNewsFAQTripsMembersLoginFeedback
PNR Super Search

Ticket PNR Status Inquiry - PNR: 443-xxxxxxx (E-Ticket)

OLD STATUS

Status Last Updated on: Feb 08 2012 (1:07PM) IST

Date of Journey: Tue Feb 07, 2012   Class: First Class - FC   (Total Seats available for this Class/Quota: Avbl 18)
Passenger 1: Can/Mod (Booking Status: W/L 13,GNWL)
Passenger 2: Can/Mod (Booking Status: W/L 14,GNWL)
Chart PREPARED

Madurai-Punalur Passenger/56700

Travel Time: 7h 40m    18 halts    Distance: 302 km    Avg Speed: 39 km/hr
Type: Passenger
Zone: SR/Southern
Departs @ 23:05 (Avg 10m late)
Platform# 5
SMTWTFS
Madurai Junction/MDU 
Arrives @ 06:45 +1 night (Avg 12m late)
Platform# 1
SMTWTFS
Trivandrum Central/TVC 

18 halts. 38 intermediate Stations between Madurai Junction and Trivandrum Central

Show ALL intermediate Stations  Show Old Time-Table

#TrkCodeStation NameX/OArrivesAvgDepartsAvgHaltPFDay#KmSpeedElevZoneAddress
1/--/MDUMadurai Junction (6)»  -23:15 23:05+10510.041139mSRMadurai 625001, Tamil Nadu
2/--/TDNTirupparankundram (2)X  23:25 23:15+3223:26 23:16+401m116.970145mSRThirunagar, Tamil Nadu
3/--/TMQTirumangalam (3)X  23:35 23:25+3923:36 23:26+451m--117.553132mSRTirumangalam, Tamil Nadu
4/--/VPTVirudunagar Junction (4)  00:05 23:55+3700:07 23:57+482m2143.268108mSRPh No: 04562-243747, Tamil Nadu
5/--/SRTSatur (2)  00:29 00:21+5900:30 00:22+1:001m--270.54065mSRPh No:04562 - 260243, Tamil Nadu
6/--/CVPKovilpatti  00:54+4300:55+461m1291.97190mSRKovilpatti, Tamil Nadu
7/--/KDUKadambur (2)  01:14+1:0001:15+1:011m--2114.35990mSRKadambur, Tamil Nadu
8/--/MEJVanchi Maniyachchi Junction (3)  01:29+5801:30+581m--2128.22870mSRThoothukudi, Tamil Nadu
9/--/TENTirunelveli Junction (5)  02:40 02:30+2102:45+175 15m--2156.57245mSRTirunelveli-627001, Tamil Nadu
10/--/NNNNanguneri (2)  03:09+4303:10+431m--2185.46096mSRNanguneri, Tamil Nadu
11/--/VLYValliyur  03:24+4203:25+431m--2199.44594mSRVallioor, Tamil Nadu
12/--/AAYAralvaymoli  03:54 03:49+4003:55 03:50+401m--2217.61380mSRDist. Kanniyakumari, Tamil Nadu
13/--/NCJNagercoil Junction (4)04:35 04:50+404:45 04:55+1610 5m12230.74222mSRNagercoil-629002, Tamil Nadu
14/--/ERLEraniel (2)  05:09 05:21+1805:10 05:22+191m--2248.97219mSRKanyakumari, Tamil Nadu
15/--/PYDPalliyadi  05:19 05:29-05:20 05:30-1m--2257.45540mSRKanyakumari, Tamil Nadu
16/--/KZTKulitturai (2)  05:29 05:37+2105:30 05:38+221m--2263.84429mSRMarthandam, Tamil Nadu
17/--/KZTWKuzhithurai West (1)  05:34 05:42-05:35 05:43-1m12266.710437mSRKanyakumari, Tamil Nadu
18/--/PASAParassala  05:39 05:47+2305:40 05:48+251m--2273.75945mSRParassala, Kerala
19/--/NYYNeyyattinkara  05:59+2606:00+291m--2284.52311mSRThiruvananthapuram, Kerala
20/--/TVCTrivandrum Central (5)•  06:55 06:45+1207:00 06:50+155m12301.83512mSRThiruvananthapuram 695001, Kerala
21/==/TVPThiruvananthapuram Pettah (2)X  07:04 06:54+907:05 06:55+91m--2304.14618mSRTrivandrum Ph: 04712470181, Kerala
22/==/KCVLTrivandrum Kochuveli (3)  07:09 07:01+2107:10 07:02+221m32308.84911mSRTrivandrum 695021, Kerala
23/==/VELITrivandrum Veli (1)  07:14 07:06-07:15 07:07-1m12312.0459mSRTrivandrum, Kerala
24/==/KZKKazhakkuttam (3)X  07:19 07:11+2607:20 07:12+261m--2315.14820mSRKulathoor ? Kazhakootam Road Kazhakootam PO Thiruvananthapuram, Kerala
25/==/KXPKaniyapuram (2)  07:24 07:17-07:25 07:18-1m--2319.14814mSRTrivandrum, Kerala
26/==/MQUMurukkampuzha (2)  07:30 07:23+3407:31 07:24+401m--2323.05018mSRMurukkumpuzha, Kerala
27/==/PGZPerunguzhi (2)  07:34 07:28-07:35 07:29-1m--2326.46218mSRPerunguzhi Railway Station, Kerala
28/==/CRYChirayinkeezhu (2)X  07:39 07:33+2907:40 07:34+291m--2330.53719mSRChirayinkeezhu, Kerala
29/==/KVUKadakavur (3)XO  07:44 07:39+4607:45 07:40+471m--2333.63220mSRKadakkavoor, Kerala
30/==/AMYAkathumuri (2)  07:50 07:45-07:51 07:46-1m--2336.26513mSRAkathumuri Rd, Kerala
31/==/VAKVarkala Sivagiri (3)  08:01 07:52+3008:02 07:53+301m--2342.75752mSREdava Kappil Road, Kerala
32/==/EVAEdavai (2)X  08:06 07:57-08:07 07:58-1m--2346.64228mSRThiruvananthapuram, Kerala
33/==/KFIKappil (2)X  08:10 08:02-08:11 08:03-1m12349.44620mSRKappil, Kerala
34/==/PVUParavur (3)  08:15 08:09+5008:16 08:10+511m--2354.05318mSRParavoor, Kerala
35/==/MYYMayyanad (2)X  08:19 08:14+5208:20 08:15+521m--2357.54321mSRMayyanad, Kerala
36/==/IRPEravipuram (2)X  08:25 08:21-08:26 08:22-1m--2361.8420mSRKollam, Kerala
37/==/QLNKollam Junction (6)  09:05 09:25+1209:30 09:35+1525 10m42366.411216mSRKollam 0474-2746194, Kerala
38|--|KLQKilikollur  09:38+2109:39+211m--2372.02620mSRKollam, Kerala
39|--|CTPEChandanattop Halt  09:43-09:44-1m--2373.74630mSRKilikkollur, Kerala
40|--|KUVKundara  09:51+2309:52+231m--2379.02845mSRKundara, Kerala
41|--|KFVKundara East  09:56-09:57-1m--2380.93654mSRKollam-Tirumangalam Rd, Kerala
42|--|EKNEzhukone  10:02-10:03-1m--2384.04860mSRKollam-Tirumangalam Rd, Kerala
43|--|KKZKottarakara  10:12+2210:13+231m--2391.14542mSRKottarakkara, Kerala
44|--|AVSAuvaneeswaram  10:29+2210:30+251m--2403.01322mSRAvaneeswaram Pathanapuram Rd, Kerala
45|--!PUUPunalur  11:10 11:05+6---2410.7-40mSRTel: 0475 2222606, Kerala
Scroll to Top
Scroll to Bottom


Go to Mobile site